"Pseudo-MPEC" for P10Y1eZ

Created 2020 Mar 30 5:07:07 UT using Find_Orb

Click here for an explanation of pseudo-MPECs

 
 Astrometry: 
     P10Y1eZ  C2020 03 22K;!jgo_-l5).VlPIBpq\6CNsfC(!5n=Astrometry`cs*PhC7ZXuF51
     P10Y1eZ  C2020 03 22C4gM7cD.y4+NbLqjM,^kFGd*R,MCA`dt,kfoiNo$Zwf,HV3UoXUpF51
     P10Y1eZ  C2020 03 22v`)gFJMdhJYhtICMP@m6hIJwr(-C%mEb4redacted;k2b0Z3,.\QF51
     P10Y1eZ  C2020 03 22cSKVi:Zmk,vxOUEu=Z@OvPclick):epMS%pU*MyxaljmBBCwh:8CF51
     P10Y1eZ  C2020 03 23.01147 11 51 24.22 +08 47 39.2    ~3N17 21.2 VVNEOCP033
     P10Y1eZ  C2020 03 23.01505 11 51 24.04 +08 47 45.9    ~3N17 21.2 VVNEOCP033
     P10Y1eZ  C2020 03 23.01863 11 51 23.84 +08 47 52.8    ~3N17 20.9 VVNEOCP033
     P10Y1eZ  C2020 03 24.29106 11 50 12.81 +09 29 00.4    ~3O7b 21.7 GVNEOCPI52
     P10Y1eZ  C2020 03 24.29357 11 50 12.71 +09 29 04.9    ~3O7b 21.2 GVNEOCPI52
     P10Y1eZ  C2020 03 24.29607 11 50 12.63 +09 29 07.7    ~3O7b 22.2 GVNEOCPI52
     P10Y1eZ KC2020 03 30xClbwl5*HnXy'Wwh#g\d%herewRwl.ii`2pRtGxd+forFX+$Wg5/H21
     P10Y1eZ KC2020 03 30UmP7explanationm:pDFG6T7Z:I*FxQDb6EtuI,b9;,k/S`w,'h;H21
     P10Y1eZ KC2020 03 30HUBRV@]\MEVHIb1WOH#8!crRI@BN:N*41*J^*'a-CrIU!KX9u2XxH21

Station data:
(033) Karl Schwarzschild Observatory, Tautenburg  (N50.980140 E11.711240)
   Germany. 1.3-m Schmidt.
(F51) Pan-STARRS 1, Haleakala  (N20.707235 W156.255910)  US/Hawaii.
   Observers N. Primak, A. Schultz, S. Watters, J. Thiel, T. Goggia. Measurer
   PS1 Science Consortium. 1.8-m Ritchey-Chrétien + CCD.
(H21) Astronomical Research Observatory, Westfield  (N39.483057 W87.968270)
   US/Illinois. 0.76-m f/3.0 astrograph + CCD.
(I52) Steward Observatory, Mt. Lemmon Station  (N32.442547 W110.788920)
   US/Arizona.  Observers T. A. Pruyne, B. M. Africano, E. J. Christensen, G.
   A. Farneth, D. C. Fuls, A. R. Gibbs, A. D. Grauer, H. Gröller, J. A.
   Johnson, R. A. Kowalski, S. M. Larson, G. J. Leonard, D. Rankin, R. L.
   Seaman, F. C. Shelly. 1.0-m reflector + CCD.

Orbital elements:  P10Y1eZ
   Perihelion 2020 Sep 27.699758 +/- 4.34 TT = 16:47:39 (JD 2459120.199758)
Epoch 2020 Mar 30.0 TT = JDT 2458938.5   Earth MOID: 0.8261   AutoNEOCP
M 305.88799196 +/- 1.7              (J2000 ecliptic)
n   0.29781001 +/- 0.0174           Peri.   95.42557 +/- 1.7
a   2.22080204 +/- 0.0866           Node   173.53382 +/- 0.25
e   0.2936795 +/- 0.00534           Incl.   36.73309 +/- 2.5
P   3.31                   H 19.5   G  0.15   U 10.0  
q 1.56859791 +/- 0.0465    Q 2.87300617 +/- 0.115
From 13 observations 2020 Mar. 22-30; mean residual 0".46
Residuals in arcseconds: 
200322 F51  .11+  .07+    200323 033  .10-  .14-    200330 H21  .06-  .20-    
200322 F51  .06+  .11+    200323 033  .01+  .18-    200330 H21  .08-  .36+    
200322 F51  .14+  .00     200324 I52  .73-  .94+    200330 H21  .13+  .16-    
200322 F51  .14+  .02-    200324 I52  .02-  .59+    
200323 033  .52-  .09+    200324 I52  .98+  1.4-    

Ephemerides (geocentric):
Date (UTC) HH   RA              Dec         delta   r     elong  mag " sig PA
---- -- -- --  -------------   -----------  ------ ------ -----  --- ---- ---
2020 03 30 05  11 44 46.719   +12 36 47.30  1.0305 1.9961 159.3 21.7 .474 139
2020 03 30 06  11 44 44.480   +12 38 04.90  1.0305 1.9960 159.2 21.7 .513 138
2020 03 30 07  11 44 42.241   +12 39 22.46  1.0305 1.9958 159.1 21.7 .553 137
2020 03 30 08  11 44 40.004   +12 40 39.99  1.0305 1.9957 159.1 21.7 .594 137
2020 03 30 09  11 44 37.768   +12 41 57.49  1.0306 1.9955 159.0 21.7 .635 136
2020 03 30 10  11 44 35.533   +12 43 14.96  1.0306 1.9954 159.0 21.7 .677 135
2020 03 30 11  11 44 33.299   +12 44 32.39  1.0306 1.9952 158.9 21.7 .721 135
2020 03 30 12  11 44 31.066   +12 45 49.80  1.0307 1.9951 158.9 21.7 .765 134
2020 03 30 13  11 44 28.834   +12 47 07.17  1.0307 1.9949 158.8 21.7 .810 134
2020 03 30 14  11 44 26.604   +12 48 24.52  1.0307 1.9948 158.7 21.7 .855 133
2020 03 30 15  11 44 24.375   +12 49 41.83  1.0308 1.9946 158.7 21.7 .902 133
2020 03 30 16  11 44 22.147   +12 50 59.11  1.0308 1.9945 158.6 21.7 .949 133
2020 03 30 17  11 44 19.920   +12 52 16.35  1.0308 1.9943 158.6 21.7 1.00 132
2020 03 30 18  11 44 17.695   +12 53 33.57  1.0309 1.9942 158.5 21.7 1.05 132
2020 03 30 19  11 44 15.470   +12 54 50.75  1.0309 1.9940 158.4 21.7 1.10 132
2020 03 30 20  11 44 13.247   +12 56 07.90  1.0309 1.9939 158.4 21.7 1.15 132
2020 03 30 21  11 44 11.025   +12 57 25.02  1.0310 1.9937 158.3 21.7 1.20 131
2020 03 30 22  11 44 08.805   +12 58 42.10  1.0310 1.9936 158.3 21.7 1.25 131
2020 03 30 23  11 44 06.585   +12 59 59.16  1.0310 1.9935 158.2 21.7 1.30 131
2020 03 31 00  11 44 04.367   +13 01 16.18  1.0311 1.9933 158.2 21.7 1.36 131
2020 03 31 01  11 44 02.150   +13 02 33.16  1.0311 1.9932 158.1 21.7 1.41 131
2020 03 31 02  11 43 59.935   +13 03 50.12  1.0312 1.9930 158.0 21.7 1.47 131
2020 03 31 03  11 43 57.720   +13 05 07.04  1.0312 1.9929 158.0 21.7 1.53 130
2020 03 31 04  11 43 55.507   +13 06 23.93  1.0312 1.9927 157.9 21.7 1.58 130
2020 03 31 05  11 43 53.296   +13 07 40.78  1.0313 1.9926 157.9 21.8 1.64 130
2020 03 31 06  11 43 51.085   +13 08 57.60  1.0313 1.9924 157.8 21.8 1.70 130
2020 03 31 07  11 43 48.876   +13 10 14.39  1.0314 1.9923 157.7 21.8 1.76 130
2020 03 31 08  11 43 46.668   +13 11 31.14  1.0314 1.9921 157.7 21.8 1.82 130
2020 03 31 09  11 43 44.461   +13 12 47.86  1.0314 1.9920 157.6 21.8 1.88 130
2020 03 31 10  11 43 42.256   +13 14 04.54  1.0315 1.9918 157.6 21.8 1.95 130
2020 03 31 11  11 43 40.052   +13 15 21.19  1.0315 1.9917 157.5 21.8 2.01 130
2020 03 31 12  11 43 37.850   +13 16 37.81  1.0316 1.9915 157.5 21.8 2.07 130
2020 03 31 13  11 43 35.648   +13 17 54.39  1.0316 1.9914 157.4 21.8 2.14 129
2020 03 31 14  11 43 33.448   +13 19 10.94  1.0317 1.9912 157.3 21.8 2.21 129
2020 03 31 15  11 43 31.250   +13 20 27.45  1.0317 1.9911 157.3 21.8 2.27 129
2020 03 31 16  11 43 29.053   +13 21 43.93  1.0317 1.9909 157.2 21.8 2.34 129
2020 03 31 17  11 43 26.857   +13 23 00.37  1.0318 1.9908 157.2 21.8 2.41 129
2020 03 31 18  11 43 24.662   +13 24 16.78  1.0318 1.9907 157.1 21.8 2.48 129
2020 03 31 19  11 43 22.469   +13 25 33.15  1.0319 1.9905 157.0 21.8 2.55 129
2020 03 31 20  11 43 20.277   +13 26 49.49  1.0319 1.9904 157.0 21.8 2.62 129
2020 03 31 21  11 43 18.087   +13 28 05.79  1.0320 1.9902 156.9 21.8 2.69 129
2020 03 31 22  11 43 15.898   +13 29 22.06  1.0320 1.9901 156.9 21.8 2.77 129
2020 03 31 23  11 43 13.711   +13 30 38.29  1.0321 1.9899 156.8 21.8 2.84 129
2020 04 01 00  11 43 11.524   +13 31 54.48  1.0321 1.9898 156.8 21.8 2.92 129
2020 04 01 01  11 43 09.340   +13 33 10.64  1.0322 1.9896 156.7 21.8 3.00 129
2020 04 01 02  11 43 07.157   +13 34 26.77  1.0322 1.9895 156.6 21.8 3.07 129
2020 04 01 03  11 43 04.975   +13 35 42.85  1.0323 1.9893 156.6 21.8 3.15 129
2020 04 01 04  11 43 02.794   +13 36 58.91  1.0323 1.9892 156.5 21.8 3.23 129